Wind_Speed
23 25 26 26 26 25 24 25 28 29 28 28 25 22 21 19 18 18 24 17 11 12 28 21 13 32 31 10 6 14 11 3 3 6 4 3 2 1 3 5 6 3 3 2 3 5 1 5 3 8 7 17 29 26
23 25 26 25 25 24 23 25 26 27 27 27 25 23 21 20 19 19 20 15 11 15 24 35 21 16 18 22 21 8 6 10 4 3 2 2 2 4 3 2 3 4 4 3 3 3 3 19 29 28 32 34 31 39
24 24 25 26 24 23 23 24 25 26 27 27 25 23 20 18 18 15 18 13 13 11 23 11 10 28 17 18 13 6 7 8 13 14 2 2 2 2 3 4 7 5 4 6 7 10 15 31 34 34 39 38 35 39
24 25 25 26 23 22 23 25 26 26 26 25 25 21 16 16 15 14 17 10 12 8 5 10 25 18 16 15 8 11 20 21 24 12 2 2 3 6 3 1 4 1 4 9 15 14 27 26 33 39 38 40 38 35
23 24 25 26 23 21 22 24 25 26 25 24 23 21 17 15 14 13 9 4 6 7 4 13 21 14 17 15 9 7 11 17 12 6 3 3 3 5 3 4 5 6 9 6 5 10 24 19 34 39 39 38 39 41
23 25 25 24 22 21 22 23 24 26 23 23 21 19 17 14 10 8 3 7 10 12 5 4 10 13 22 10 7 8 13 12 6 5 3 6 5 3 4 3 4 8 20 30 12 28 36 35 38 34 38 36 35 34
23 25 23 22 21 20 21 25 23 25 24 24 20 18 16 10 9 4 4 10 12 10 4 4 5 8 19 11 10 11 12 9 7 5 6 3 7 6 3 3 7 17 31 39 41 42 29 36 32 35 34 32 30 29
23 24 22 21 20 19 20 24 23 23 23 19 14 10 8 4 1 2 5 6 9 6 4 3 4 7 14 8 7 11 9 6 9 5 6 3 6 4 4 5 20 26 29 30 26 29 39 39 36 33 30 28 27 26
22 21 22 21 19 17 16 21 23 23 19 15 10 6 4 2 3 5 6 5 4 4 4 2 2 4 10 5 6 7 5 3 7 3 3 4 3 4 1 6 21 25 19 27 36 39 37 36 34 30 27 26 27 25
19 20 21 20 18 16 17 19 22 21 17 14 7 3 1 6 5 5 1 3 2 2 3 3 4 3 5 4 4 6 5 1 2 3 4 4 3 4 12 15 13 30 33 37 34 26 30 32 31 29 25 23 23 20
17 19 20 18 17 15 15 17 20 22 17 12 9 4 12 10 3 2 2 2 2 2 3 4 3 2 4 2 2 3 2 1 3 4 3 2 2 2 14 14 19 30 31 27 30 29 26 29 32 31 29 25 21 19
17 19 17 17 16 14 12 14 18 19 15 13 9 11 8 3 2 2 2 2 2 2 2 1 4 4 5 3 2 4 2 3 1 1 3 2 3 12 13 15 19 30 29 28 24 25 24 28 31 31 29 27 23 21
17 17 16 16 15 11 10 12 14 15 13 4 3 3 3 1 2 2 3 2 3 3 2 4 3 3 3 2 3 2 3 2 2 3 1 2 10 14 17 15 26 30 30 26 22 23 23 33 30 29 29 25 20 18
17 16 16 15 10 11 11 13 12 12 4 3 3 5 2 1 2 2 2 4 8 5 6 9 4 2 4 5 1 2 3 2 3 3 1 3 14 8 19 21 30 26 27 22 30 30 32 30 30 27 22 20 19 18
17 16 13 4 14 15 15 12 8 7 1 0 1 2 2 4 4 9 11 11 7 5 9 5 2 4 2 2 2 3 5 3 3 2 2 12 4 9 21 24 26 22 23 36 34 33 30 26 23 24 21 17 14 15
18 12 2 12 16 10 10 6 1 2 1 1 3 3 5 5 5 5 7 9 5 7 11 3 1 2 1 1 2 2 2 2 1 2 11 9 16 18 24 24 27 26 29 35 33 30 27 24 23 22 18 18 17 13
17 10 12 12 11 8 2 1 1 1 2 2 4 7 10 10 10 9 12 9 6 8 2 2 2 2 2 2 3 3 1 2 0 3 7 7 15 23 27 22 26 36 34 32 30 26 23 22 22 21 19 17 15 15
16 11 9 9 10 4 2 1 1 2 3 5 4 5 6 10 9 10 8 6 6 5 3 2 3 3 1 1 1 2 4 4 3 5 4 10 18 17 24 25 28 29 32 30 25 22 20 18 18 18 18 16 13 13
14 9 3 4 8 4 1 1 2 2 3 5 7 8 6 11 14 11 10 5 5 6 7 3 1 1 2 5 5 6 4 4 4 4 9 14 20 17 24 29 33 31 29 27 23 20 18 15 15 16 15 13 14 14
6 2 3 3 3 1 3 2 2 3 3 4 10 8 7 9 11 8 6 5 5 4 1 0 2 4 5 3 6 5 5 5 8 10 13 21 26 26 26 30 28 26 25 21 19 17 15 15 12 13 16 17 16 17
3 3 1 2 2 2 2 2 3 3 5 5 9 10 8 8 8 8 5 3 3 1 2 5 5 3 2 2 2 6 6 8 13 18 24 24 23 21 22 20 21 18 21 20 20 16 15 15 15 18 15 9 12 14
3 4 1 1 2 2 3 3 4 6 3 7 8 3 4 4 3 3 3 3 2 1 1 2 2 4 4 3 1 3 10 16 19 24 18 19 25 24 22 22 25 20 17 17 18 18 15 14 14 16 16 17 15 15
2 3 2 1 2 2 4 2 3 3 2 3 3 2 2 2 2 2 1 1 1 0 0 1 1 3 3 1 10 16 19 19 17 19 19 21 20 19 19 18 15 17 17 18 17 17 20 17 14 19 19 14 11 17
2 0 1 2 3 3 3 3 4 3 3 2 2 3 2 2 2 2 1 2 5 3 1 1 7 9 12 17 21 21 20 16 14 13 15 15 17 19 20 16 15 16 15 17 17 23 21 17 17 13 9 7 13 18
0 1 2 3 3 3 3 2 3 2 2 2 2 2 2 1 0 1 2 1 4 4 3 5 10 9 14 14 13 13 13 12 13 14 15 13 11 11 14 16 15 15 16 20 25 21 19 18 15 11 9 9 18 16
1 2 4 2 3 2 2 2 1 2 2 2 1 4 5 2 2 3 4 3 2 6 1 5 9 13 14 10 12 13 13 7 11 14 11 14 14 19 23 22 19 17 13 12 16 18 19 17 14 13 10 11 12 15
2 3 3 3 5 5 4 5 5 2 3 2 1 2 3 2 1 3 3 1 1 4 4 4 3 8 10 11 6 11 14 13 13 9 11 12 16 17 17 17 17 13 12 10 9 10 19 18 16 14 12 12 13 12
2 4 3 9 5 3 3 3 2 1 2 3 5 1 2 1 1 2 2 2 2 5 0 2 2 2 12 14 6 5 12 13 12 9 14 14 12 13 12 12 11 10 11 8 6 10 10 17 17 16 13 10 13 11
3 5 5 8 6 3 2 3 3 2 3 3 2 2 3 4 8 3 4 2 3 2 2 1 2 4 8 9 9 11 9 12 16 13 17 18 17 16 14 12 11 10 12 11 10 11 15 14 16 14 10 8 7 8
3 4 4 3 2 0 3 5 6 2 3 6 4 1 1 4 8 8 7 5 4 2 4 2 2 7 7 8 12 8 4 11 16 19 19 20 18 14 15 16 17 16 16 15 15 16 15 15 13 14 14 12 12 10
5 3 3 4 3 4 7 10 11 12 14 11 7 6 1 3 6 8 7 7 6 5 3 1 6 13 10 7 11 6 4 7 13 15 14 17 16 14 11 10 17 16 14 16 18 16 15 16 16 17 17 15 11 8
4 3 5 3 7 12 14 13 10 4 1 1 2 2 2 0 3 3 11 8 5 6 6 4 7 3 1 13 9 4 6 10 8 10 15 14 14 10 9 7 5 13 13 10 13 14 14 14 17 18 15 12 10 9
9 10 11 9 3 4 4 4 2 2 2 2 2 1 1 1 3 3 5 8 8 7 8 5 2 1 5 9 10 16 6 7 12 15 16 17 14 17 17 13 9 10 11 11 12 13 14 14 14 13 13 12 12 11
Wind_Direction
328 328 331 331 333 333 332 332 333 337 340 335 331 331 333 332 329 319 309 322 292 275 290 281 290 302 295 288 291 312 320 14 303 360 5 14 21 320 134 131 129 108 99 53 70 81 130 353 30 135 145 106 121 118
326 328 328 331 331 333 331 333 337 337 336 336 333 327 327 329 326 322 313 334 308 275 276 303 304 325 322 300 273 301 304 308 284 317 353 321 344 359 27 79 305 66 159 141 78 81 7 82 103 109 113 112 119 123
325 326 327 330 332 332 331 332 337 335 331 332 331 327 324 327 330 329 314 338 321 291 309 311 320 326 320 327 321 309 296 300 290 293 275 237 4 23 39 21 81 53 84 83 75 54 83 91 95 106 117 113 114 119
322 324 327 329 330 329 328 329 330 327 331 334 328 328 325 326 331 323 316 320 295 279 278 289 319 324 346 337 315 293 303 315 311 306 258 1 38 8 41 116 76 338 87 99 94 95 81 79 100 113 112 121 124 126
321 324 327 327 327 325 328 329 331 335 335 332 329 328 319 318 317 323 305 342 338 290 287 299 324 335 338 331 323 324 328 329 330 357 8 17 359 9 360 39 23 353 137 127 128 108 110 108 109 121 118 120 130 131
322 323 325 325 324 323 328 329 335 335 334 336 327 323 320 317 313 338 282 252 332 341 313 306 307 320 344 348 3 20 6 358 337 2 341 3 342 81 60 15 287 56 118 118 125 116 112 113 120 122 122 126 129 128
321 321 323 324 323 322 326 327 331 333 332 332 324 318 318 295 294 271 259 302 333 320 278 280 294 325 342 1 14 0 10 0 358 11 16 344 349 60 62 45 3 96 117 121 123 121 103 122 116 124 123 123 122 119
319 320 322 322 323 323 330 333 334 334 336 334 339 337 349 4 21 310 309 315 317 307 280 293 298 314 354 336 338 354 340 1 17 12 9 8 4 41 44 347 90 107 112 117 121 131 129 127 127 124 126 126 119 117
317 319 321 321 321 323 329 332 340 339 342 337 342 342 341 356 337 306 302 286 299 274 306 299 293 311 336 325 314 330 338 14 352 34 351 42 340 49 314 87 111 123 126 120 124 127 133 130 127 129 130 128 125 125
317 321 321 318 318 321 329 334 339 343 346 350 6 31 350 329 329 303 255 300 303 227 249 251 277 281 321 317 320 351 351 346 33 288 1 57 355 23 82 122 130 137 136 133 124 128 130 130 136 138 135 137 133 133
321 325 319 320 318 321 327 338 339 345 359 9 2 341 315 317 310 262 276 218 212 259 239 259 300 291 320 358 295 336 257 306 46 287 83 8 348 336 112 126 145 145 148 143 142 149 148 150 147 145 145 140 137 134
322 318 316 316 315 318 320 336 339 345 350 335 318 314 316 321 295 309 259 237 213 234 266 274 293 303 305 300 359 330 346 12 343 241 64 68 323 139 126 131 145 152 152 146 149 154 150 155 152 151 149 145 141 137
316 318 316 314 315 315 313 324 334 336 342 355 339 297 276 286 5 320 350 336 332 325 301 301 310 292 305 280 308 338 9 278 314 45 87 23 332 155 138 144 152 152 144 137 147 150 153 152 154 149 145 144 142 137
319 319 314 312 327 333 315 315 325 336 346 16 343 309 225 20 23 281 314 308 304 331 339 330 323 357 4 2 356 357 287 0 52 27 9 321 338 122 148 140 147 145 146 141 143 144 141 139 137 140 141 144 142 138
317 318 315 287 325 319 315 311 307 304 245 13 314 281 339 324 298 293 310 312 330 329 342 346 12 12 322 16 345 358 342 50 32 314 263 286 281 129 140 149 143 133 130 140 144 139 135 135 133 134 138 141 143 142
319 332 269 303 315 320 313 321 266 186 172 209 231 276 290 312 322 312 325 322 335 326 321 294 359 354 352 285 303 336 353 39 292 311 338 68 139 153 136 142 143 131 141 142 141 139 137 138 138 139 141 144 145 144
316 312 301 322 336 342 343 39 130 221 211 223 251 256 271 279 272 271 311 313 335 325 327 346 357 246 311 14 5 2 69 174 45 331 347 94 135 143 133 139 143 150 147 143 140 140 139 142 144 145 141 144 145 142
304 322 328 331 338 23 120 153 217 229 245 245 248 261 239 248 270 289 296 320 324 333 303 295 316 34 287 277 293 227 223 207 258 287 246 147 134 147 151 138 143 150 146 144 143 143 143 148 149 149 151 156 159 160
314 321 326 325 348 16 331 237 258 266 260 256 268 278 275 299 304 304 298 283 269 296 300 319 102 243 248 223 230 239 241 223 237 233 178 150 151 142 157 163 158 151 148 147 146 145 148 154 156 160 163 166 152 150
299 302 339 288 337 354 301 274 270 268 271 289 296 292 261 274 306 295 297 272 291 272 283 108 233 220 251 252 222 248 213 243 166 153 141 143 151 144 150 151 149 148 145 145 144 143 151 161 159 155 151 152 153 154
203 297 262 321 349 270 263 300 263 254 293 285 300 312 296 293 275 284 282 233 224 353 277 248 261 222 239 203 226 195 201 165 160 149 130 126 143 155 150 151 147 158 151 154 156 160 160 153 156 164 164 187 202 188
240 316 121 50 298 270 276 240 263 290 272 270 287 267 274 285 277 251 204 200 240 229 247 254 209 199 191 235 227 178 165 154 153 143 129 146 150 149 147 158 157 156 163 167 168 171 166 172 171 180 192 173 163 161
29 15 344 315 290 253 269 259 258 250 243 257 280 283 256 260 263 311 123 104 103 112 131 10 321 177 198 195 137 140 146 144 151 154 158 159 159 162 161 170 169 171 173 175 180 185 179 173 176 169 167 169 179 171
357 168 267 278 246 265 293 253 234 244 269 278 257 277 258 241 292 3 111 43 30 10 162 85 151 133 127 133 142 148 153 153 163 164 171 170 164 172 175 183 193 202 206 191 181 174 173 179 176 179 175 171 175 168
340 194 233 280 252 266 254 247 225 234 266 294 271 273 287 231 250 29 85 49 40 49 116 163 172 153 152 158 160 157 160 167 178 178 181 188 194 202 208 222 209 189 186 176 170 175 177 181 182 176 160 156 161 175
301 214 189 305 307 259 270 282 305 299 277 270 359 351 356 34 37 36 329 313 353 355 21 194 200 197 183 195 207 200 191 196 194 199 199 189 192 175 158 155 158 165 181 195 184 181 181 179 179 175 170 174 191 194
284 269 247 259 290 301 297 289 276 266 275 23 356 43 30 13 92 234 235 290 11 53 75 41 30 207 172 191 197 204 189 181 172 183 176 185 188 193 191 186 177 180 182 198 199 206 187 186 185 187 192 185 184 196
283 313 334 326 317 279 253 276 275 322 332 347 329 181 164 57 231 343 323 334 21 41 39 38 14 110 181 185 179 196 178 192 196 169 175 179 186 189 194 194 192 190 189 201 188 173 199 189 190 197 199 202 207 204
251 239 260 277 277 244 278 18 311 309 309 311 3 45 8 4 354 356 342 271 266 238 19 327 33 177 188 161 163 149 183 180 164 198 187 180 179 181 187 192 195 198 193 193 183 180 179 190 192 203 207 214 215 213
257 264 238 253 240 351 303 277 260 309 326 303 305 78 166 84 63 73 66 60 189 244 325 306 136 170 141 183 181 168 206 215 187 186 193 188 186 190 204 211 210 200 196 200 196 189 187 190 195 195 199 202 204 212
275 272 266 241 258 255 280 293 279 287 280 280 268 257 240 126 87 55 52 33 2 352 10 302 197 178 176 165 171 275 226 181 199 200 210 203 194 194 193 204 201 200 203 205 201 203 204 202 206 207 208 207 215 235
242 251 228 238 262 298 299 282 265 236 176 153 107 124 146 19 95 72 30 28 29 37 44 76 157 183 136 190 212 238 214 198 199 187 177 179 178 186 182 190 222 215 201 212 213 211 205 205 204 208 213 220 223 229
226 237 257 289 299 332 344 330 217 169 140 111 87 66 115 76 89 87 53 38 34 26 31 29 40 269 242 238 238 227 232 202 212 213 205 206 218 225 213 214 207 210 215 215 199 202 204 206 208 211 210 217 228 238
Height
1532 1528 1524 1519 1515 1511 1508 1504 1500 1495 1490 1485 1480 1476 1472 1468 1464 1462 1457 1457 1454 1448 1436 1433 1429 1425 1416 1414 1406 1395 1387 1381 1375 1368 1361 1359 1356 1353 1354 1359 1363 1366 1372 1379 1378 1382 1391 1370 1371 1380 1394 1397 1400 1411
1529 1524 1520 1515 1510 1507 1504 1500 1496 1491 1487 1482 1476 1473 1468 1464 1461 1458 1454 1453 1450 1446 1436 1432 1424 1418 1416 1409 1405 1398 1396 1390 1385 1379 1375 1373 1362 1358 1355 1366 1358 1368 1370 1372 1377 1382 1381 1374 1377 1388 1393 1397 1411 1417
1524 1520 1516 1511 1507 1503 1500 1497 1493 1488 1482 1478 1473 1469 1465 1461 1458 1455 1451 1450 1447 1441 1431 1426 1420 1416 1412 1409 1406 1403 1394 1388 1382 1380 1373 1371 1366 1366 1368 1366 1363 1368 1368 1372 1375 1394 1390 1388 1393 1397 1401 1407 1416 1420
1520 1516 1512 1507 1502 1499 1496 1493 1488 1484 1478 1474 1469 1465 1461 1458 1455 1453 1450 1448 1447 1443 1437 1424 1420 1414 1410 1406 1404 1402 1395 1387 1382 1374 1373 1372 1372 1368 1372 1372 1372 1377 1377 1387 1396 1398 1396 1405 1405 1410 1416 1420 1425 1432
1515 1511 1507 1503 1499 1495 1491 1488 1483 1478 1473 1469 1465 1461 1458 1456 1453 1450 1448 1446 1444 1445 1438 1426 1418 1413 1409 1406 1402 1399 1395 1388 1383 1379 1379 1381 1378 1377 1376 1377 1385 1386 1386 1390 1399 1400 1401 1414 1415 1418 1421 1427 1432 1435
1509 1505 1503 1499 1495 1492 1488 1484 1478 1474 1469 1464 1460 1457 1454 1452 1450 1449 1447 1445 1444 1442 1438 1430 1420 1413 1409 1405 1402 1399 1395 1391 1388 1387 1387 1385 1384 1383 1393 1397 1392 1388 1387 1390 1399 1406 1408 1416 1419 1423 1427 1434 1438 1441
1504 1500 1497 1494 1491 1488 1485 1481 1474 1470 1465 1459 1455 1452 1450 1448 1448 1448 1447 1446 1443 1441 1438 1430 1424 1417 1411 1407 1404 1401 1398 1395 1393 1393 1394 1392 1389 1387 1396 1399 1395 1393 1394 1399 1403 1406 1417 1420 1427 1430 1434 1440 1444 1447
1500 1497 1493 1489 1487 1485 1482 1479 1471 1467 1462 1456 1452 1449 1448 1446 1446 1446 1445 1444 1442 1440 1438 1434 1427 1421 1416 1411 1408 1405 1402 1399 1398 1398 1397 1396 1394 1396 1404 1402 1402 1404 1405 1409 1413 1415 1419 1427 1431 1436 1440 1445 1449 1452
1496 1493 1490 1486 1482 1481 1479 1475 1469 1464 1458 1454 1450 1448 1448 1447 1447 1446 1444 1443 1442 1444 1439 1435 1432 1428 1420 1417 1412 1409 1406 1406 1403 1404 1403 1403 1407 1410 1407 1406 1408 1410 1411 1415 1418 1422 1428 1431 1434 1441 1445 1449 1452 1456
1490 1488 1487 1484 1480 1477 1475 1471 1467 1462 1457 1452 1449 1448 1449 1448 1446 1446 1444 1442 1441 1440 1439 1435 1430 1428 1425 1419 1415 1414 1410 1412 1414 1412 1407 1413 1413 1409 1408 1408 1410 1411 1414 1419 1423 1432 1435 1436 1440 1445 1448 1452 1455 1460
1486 1485 1482 1480 1477 1474 1473 1469 1466 1460 1456 1452 1450 1450 1448 1446 1445 1444 1443 1441 1439 1438 1435 1431 1429 1427 1424 1423 1421 1417 1419 1416 1421 1419 1416 1421 1421 1415 1413 1413 1415 1417 1421 1425 1426 1431 1435 1438 1442 1447 1452 1455 1458 1462
1483 1481 1479 1477 1474 1471 1469 1468 1465 1461 1458 1455 1453 1451 1448 1447 1446 1445 1440 1437 1436 1436 1432 1431 1429 1428 1425 1423 1422 1418 1417 1416 1418 1414 1419 1423 1417 1416 1416 1417 1419 1422 1425 1429 1432 1437 1440 1443 1446 1449 1453 1457 1461 1465
1480 1477 1474 1472 1471 1467 1466 1465 1463 1460 1457 1454 1453 1452 1450 1448 1445 1443 1441 1438 1439 1433 1433 1431 1430 1427 1426 1424 1422 1421 1420 1420 1415 1423 1424 1423 1421 1419 1419 1420 1423 1425 1428 1433 1437 1439 1442 1445 1448 1451 1456 1460 1463 1467
1476 1474 1472 1469 1467 1464 1463 1462 1460 1458 1456 1455 1455 1454 1449 1447 1449 1448 1446 1443 1438 1434 1433 1431 1429 1428 1427 1426 1425 1424 1420 1418 1422 1425 1427 1427 1424 1423 1421 1423 1426 1430 1434 1436 1438 1442 1446 1449 1453 1457 1459 1463 1466 1469
1472 1470 1467 1467 1464 1461 1460 1458 1458 1457 1456 1455 1456 1453 1449 1449 1447 1445 1443 1440 1437 1435 1433 1432 1431 1431 1429 1429 1428 1428 1423 1424 1428 1431 1433 1427 1424 1426 1425 1426 1429 1433 1436 1439 1442 1446 1449 1453 1456 1460 1464 1466 1468 1471
1470 1466 1465 1463 1459 1457 1456 1455 1455 1455 1454 1455 1454 1453 1450 1448 1447 1444 1442 1439 1437 1435 1434 1432 1432 1432 1430 1431 1428 1427 1428 1432 1434 1431 1428 1424 1425 1428 1429 1430 1433 1436 1441 1442 1445 1449 1453 1456 1460 1463 1467 1469 1472 1474
1469 1465 1462 1459 1456 1454 1454 1455 1454 1453 1453 1453 1451 1450 1450 1449 1447 1444 1442 1438 1438 1437 1435 1434 1434 1432 1433 1433 1433 1434 1434 1434 1433 1432 1431 1431 1431 1432 1434 1435 1438 1441 1443 1446 1449 1454 1457 1461 1463 1466 1469 1472 1475 1477
1465 1462 1460 1457 1455 1453 1453 1454 1453 1452 1451 1450 1450 1447 1447 1446 1443 1442 1440 1439 1439 1437 1436 1434 1434 1434 1437 1435 1435 1434 1433 1433 1433 1433 1432 1433 1435 1436 1437 1439 1442 1445 1447 1450 1453 1457 1460 1463 1466 1469 1472 1475 1477 1479
1462 1459 1458 1456 1455 1454 1454 1453 1453 1451 1449 1448 1446 1445 1444 1441 1439 1438 1437 1437 1437 1437 1436 1433 1435 1436 1437 1433 1431 1431 1432 1432 1432 1432 1432 1433 1436 1438 1439 1442 1446 1448 1450 1453 1457 1460 1463 1466 1468 1471 1474 1477 1478 1480
1460 1458 1457 1455 1455 1455 1454 1453 1452 1450 1448 1446 1444 1442 1441 1439 1437 1436 1436 1436 1435 1435 1434 1434 1434 1432 1431 1430 1430 1429 1430 1430 1431 1431 1432 1434 1438 1441 1444 1446 1449 1451 1454 1458 1460 1463 1466 1468 1471 1473 1476 1478 1479 1481
1459 1457 1456 1455 1454 1454 1454 1452 1450 1449 1447 1445 1442 1440 1438 1436 1435 1434 1434 1434 1435 1434 1434 1432 1431 1430 1430 1429 1429 1429 1430 1430 1432 1432 1433 1435 1440 1444 1446 1449 1452 1455 1457 1460 1462 1465 1468 1470 1472 1475 1477 1479 1480 1482
1457 1456 1455 1455 1454 1454 1453 1452 1450 1449 1448 1444 1441 1438 1437 1435 1434 1433 1433 1433 1432 1431 1431 1431 1430 1429 1429 1428 1428 1429 1430 1432 1434 1435 1437 1440 1443 1445 1449 1452 1454 1457 1459 1461 1464 1466 1469 1471 1472 1475 1477 1479 1481 1482
1457 1456 1455 1454 1454 1454 1452 1450 1449 1447 1446 1442 1439 1438 1436 1434 1433 1432 1432 1432 1432 1432 1431 1430 1430 1429 1429 1428 1429 1431 1433 1435 1437 1440 1442 1445 1447 1449 1452 1455 1457 1459 1461 1463 1466 1468 1470 1472 1474 1475 1478 1481 1482 1483
1457 1457 1455 1454 1453 1452 1450 1448 1447 1445 1442 1441 1439 1437 1434 1433 1432 1431 1432 1433 1434 1432 1431 1431 1431 1431 1431 1432 1433 1435 1437 1439 1441 1443 1445 1447 1448 1450 1453 1455 1457 1459 1461 1463 1465 1468 1470 1472 1474 1476 1478 1480 1481 1482
1458 1457 1457 1454 1452 1451 1448 1445 1443 1443 1440 1438 1436 1434 1433 1433 1433 1433 1434 1436 1435 1434 1433 1432 1433 1433 1434 1436 1438 1439 1440 1441 1443 1444 1447 1448 1450 1452 1453 1454 1456 1458 1460 1462 1465 1468 1470 1472 1474 1476 1477 1479 1480 1482
1456 1454 1454 1451 1450 1448 1446 1444 1441 1440 1438 1437 1435 1435 1433 1434 1434 1439 1439 1437 1436 1434 1433 1432 1433 1433 1434 1435 1438 1439 1440 1442 1443 1444 1446 1447 1449 1451 1452 1454 1456 1459 1462 1463 1465 1467 1469 1471 1473 1475 1477 1479 1480 1481
1455 1452 1451 1450 1450 1448 1446 1443 1441 1440 1438 1437 1437 1437 1438 1438 1440 1440 1438 1437 1436 1435 1434 1433 1433 1433 1433 1435 1436 1437 1440 1442 1443 1445 1446 1448 1449 1451 1453 1454 1456 1459 1461 1463 1465 1466 1468 1470 1473 1475 1476 1478 1479 1480
1454 1452 1451 1451 1449 1448 1446 1443 1440 1440 1439 1438 1437 1437 1436 1437 1439 1437 1437 1436 1436 1435 1434 1433 1433 1432 1433 1435 1436 1436 1439 1441 1443 1445 1447 1448 1450 1451 1453 1455 1457 1459 1461 1462 1464 1466 1467 1469 1472 1474 1476 1478 1478 1479
1453 1451 1451 1448 1447 1446 1444 1443 1443 1441 1440 1439 1438 1439 1441 1438 1438 1436 1435 1435 1435 1435 1434 1433 1432 1433 1433 1435 1436 1437 1439 1441 1442 1444 1446 1447 1449 1452 1454 1455 1457 1459 1460 1462 1464 1465 1467 1469 1471 1473 1475 1476 1477 1479
1450 1449 1448 1446 1445 1445 1444 1443 1441 1441 1440 1440 1439 1439 1439 1440 1438 1437 1436 1435 1436 1436 1435 1434 1434 1434 1435 1436 1437 1438 1439 1439 1442 1444 1444 1446 1449 1451 1453 1455 1456 1457 1459 1461 1463 1465 1467 1469 1470 1472 1473 1475 1476 1477
1448 1447 1446 1445 1443 1441 1441 1440 1439 1439 1438 1438 1438 1439 1439 1439 1439 1439 1438 1437 1437 1436 1435 1434 1434 1434 1435 1437 1439 1439 1439 1440 1441 1442 1444 1446 1448 1450 1452 1453 1455 1457 1459 1460 1462 1464 1465 1466 1468 1470 1472 1473 1475 1476
1445 1444 1444 1443 1440 1438 1438 1436 1436 1436 1436 1436 1437 1437 1437 1437 1438 1440 1440 1439 1437 1436 1436 1435 1436 1436 1436 1437 1437 1439 1438 1439 1441 1442 1443 1445 1446 1449 1452 1454 1456 1456 1458 1459 1461 1462 1464 1465 1467 1469 1470 1472 1473 1474
1441 1442 1441 1440 1438 1436 1436 1435 1434 1435 1435 1436 1437 1437 1437 1438 1439 1442 1441 1440 1439 1438 1438 1437 1436 1437 1436 1436 1436 1437 1437 1438 1439 1441 1442 1444 1446 1447 1449 1451 1453 1455 1457 1458 1459 1461 1463 1465 1466 1468 1469 1470 1472 1472